UAE389 WARR-OMDB

Flight info

Callsign UAE389
Flight time 8h 26m
Altitude 34000
Route LASEM M766 GUTOX/N0489F360 M766 KAT P570 METIP/N0483F380 P570 MIXAM/N0392F200 P574 IMPED
Aircraft B77W/H-SDE1E2E3FGHIJ2J3J4J5M1RWXY/LB1D1

Departure

Time 2026-05-08 17:11
Airport Juanda International Airport (WARR)

Arrival

Time 2026-05-09 01:37
Airport Dubai International Airport (OMDB)
Time Latitude Longitude Altitude Speed Heading
2026-05-08 16:47 -7.38316 112.77822 14 ft 0 kts 189°
2026-05-08 17:01 -7.38301 112.77824 14 ft 2 kts 187°
2026-05-08 17:01 -7.38284 112.77826 16 ft 2 kts 181°
2026-05-08 17:01 -7.38268 112.77825 15 ft 2 kts 169°
2026-05-08 17:02 -7.38252 112.77820 14 ft 2 kts 137°
2026-05-08 17:02 -7.38244 112.77806 18 ft 2 kts 102°
2026-05-08 17:02 -7.38243 112.77801 17 ft 0 kts 99°
2026-05-08 17:05 -7.38246 112.77824 25 ft 11 kts 99°
2026-05-08 17:06 -7.38237 112.77925 14 ft 12 kts 42°
2026-05-08 17:06 -7.38161 112.77951 14 ft 12 kts 10°
2026-05-08 17:06 -7.38083 112.77946 14 ft 12 kts 329°
2026-05-08 17:06 -7.38046 112.77873 14 ft 12 kts 285°
2026-05-08 17:07 -7.38021 112.77735 14 ft 26 kts 279°
2026-05-08 17:07 -7.37992 112.77552 14 ft 26 kts 279°
2026-05-08 17:07 -7.37963 112.77376 14 ft 23 kts 278°
2026-05-08 17:07 -7.37928 112.77306 14 ft 11 kts 324°
2026-05-08 17:08 -7.37858 112.77308 14 ft 11 kts 31°
2026-05-08 17:08 -7.37806 112.77354 14 ft 10 kts 44°
2026-05-08 17:08 -7.37780 112.77415 14 ft 10 kts 90°
2026-05-08 17:08 -7.37781 112.77426 14 ft 0 kts 96°
2026-05-08 17:09 -7.37781 112.77434 15 ft 2 kts 91°
2026-05-08 17:10 -7.37782 112.77439 15 ft 0 kts 98°
2026-05-08 17:10 -7.37782 112.77442 16 ft 4 kts 98°
2026-05-08 17:10 -7.37816 112.77656 13 ft 68 kts 99°
2026-05-08 17:11 -7.37932 112.78380 13 ft 139 kts 99°
2026-05-08 17:11 -7.38122 112.79540 99 ft 186 kts 98°
2026-05-08 17:11 -7.38333 112.80847 640 ft 193 kts 97°
2026-05-08 17:11 -7.38543 112.82169 1359 ft 191 kts 101°
2026-05-08 17:12 -7.38768 112.83505 1971 ft 197 kts 101°
2026-05-08 17:12 -7.39015 112.84937 2229 ft 220 kts 101°
2026-05-08 17:12 -7.39293 112.86544 2475 ft 245 kts 101°
2026-05-08 17:12 -7.39594 112.88291 2989 ft 257 kts 101°
2026-05-08 17:13 -7.39692 112.90095 3583 ft 264 kts 77°
2026-05-08 17:13 -7.38816 112.91715 4237 ft 270 kts 45°
2026-05-08 17:13 -7.37216 112.92710 5003 ft 275 kts 18°
2026-05-08 17:13 -7.35310 112.92967 5733 ft 280 kts 356°
2026-05-08 17:14 -7.33386 112.92602 6431 ft 284 kts 348°
2026-05-08 17:14 -7.31459 112.92108 7102 ft 287 kts 347°
2026-05-08 17:14 -7.29540 112.91604 7823 ft 289 kts 347°
2026-05-08 17:14 -7.27587 112.91095 8529 ft 291 kts 347°
2026-05-08 17:15 -7.25612 112.90589 9217 ft 294 kts 347°
2026-05-08 17:15 -7.23614 112.90085 9903 ft 297 kts 347°
2026-05-08 17:15 -7.21585 112.89579 10431 ft 307 kts 347°
2026-05-08 17:15 -7.19435 112.89047 10581 ft 330 kts 347°
2026-05-08 17:16 -7.17128 112.88479 10762 ft 352 kts 347°
2026-05-08 17:16 -7.14790 112.87606 10851 ft 372 kts 328°
2026-05-08 17:16 -7.12897 112.85774 11203 ft 387 kts 303°
2026-05-08 17:16 -7.11861 112.83257 11762 ft 393 kts 282°
2026-05-08 17:17 -7.11385 112.80542 12338 ft 398 kts 279°
2026-05-08 17:17 -7.10931 112.77778 13031 ft 402 kts 279°
2026-05-08 17:17 -7.10468 112.74991 13791 ft 404 kts 279°
2026-05-08 17:17 -7.09991 112.72195 14453 ft 407 kts 279°
2026-05-08 17:18 -7.09497 112.69370 15051 ft 411 kts 279°
2026-05-08 17:18 -7.08991 112.66521 15669 ft 415 kts 279°
2026-05-08 17:18 -7.08478 112.63655 16298 ft 418 kts 279°
2026-05-08 17:18 -7.07960 112.60765 16915 ft 421 kts 279°
2026-05-08 17:19 -7.07437 112.57848 17493 ft 425 kts 279°
2026-05-08 17:19 -7.06909 112.54908 18079 ft 429 kts 279°
2026-05-08 17:19 -7.06375 112.51940 18568 ft 432 kts 279°
2026-05-08 17:19 -7.05843 112.48985 19069 ft 435 kts 279°
2026-05-08 17:20 -7.05301 112.45976 19570 ft 438 kts 279°
2026-05-08 17:20 -7.04755 112.42946 20065 ft 442 kts 279°
2026-05-08 17:20 -7.04207 112.39898 20559 ft 445 kts 279°
2026-05-08 17:20 -7.03652 112.36816 21050 ft 448 kts 279°
2026-05-08 17:21 -7.03094 112.33721 21523 ft 451 kts 279°
2026-05-08 17:21 -7.02532 112.30603 21995 ft 455 kts 280°
2026-05-08 17:21 -7.01781 112.27501 22413 ft 458 kts 288°
2026-05-08 17:21 -7.00611 112.24502 22823 ft 462 kts 293°
2026-05-08 17:22 -6.99286 112.21540 23271 ft 465 kts 294°
2026-05-08 17:22 -6.97998 112.18551 23707 ft 467 kts 292°
2026-05-08 17:22 -6.96770 112.15511 24080 ft 470 kts 291°
2026-05-08 17:22 -6.95468 112.12491 24415 ft 471 kts 297°
2026-05-08 17:23 -6.93805 112.09636 24718 ft 476 kts 303°
2026-05-08 17:23 -6.91936 112.06873 25078 ft 478 kts 305°
2026-05-08 17:23 -6.90004 112.04136 25452 ft 480 kts 305°
2026-05-08 17:23 -6.88078 112.01388 25826 ft 482 kts 304°
2026-05-08 17:24 -6.86174 111.98607 26166 ft 484 kts 304°
2026-05-08 17:24 -6.84288 111.95788 26484 ft 487 kts 303°
2026-05-08 17:24 -6.82412 111.92940 26799 ft 490 kts 303°
2026-05-08 17:24 -6.80534 111.90067 27121 ft 492 kts 303°
2026-05-08 17:25 -6.78653 111.87184 27440 ft 494 kts 303°
2026-05-08 17:25 -6.76762 111.84286 27740 ft 496 kts 303°
2026-05-08 17:25 -6.74887 111.81418 28024 ft 499 kts 303°
2026-05-08 17:25 -6.72978 111.78502 28311 ft 501 kts 303°
2026-05-08 17:26 -6.71053 111.75564 28614 ft 503 kts 303°
2026-05-08 17:26 -6.69124 111.72621 28837 ft 505 kts 303°
2026-05-08 17:26 -6.67185 111.69664 29085 ft 507 kts 303°
2026-05-08 17:26 -6.65238 111.66694 29359 ft 508 kts 303°
2026-05-08 17:27 -6.63292 111.63727 29738 ft 507 kts 303°
2026-05-08 17:27 -6.61356 111.60771 30112 ft 505 kts 303°
2026-05-08 17:27 -6.59459 111.57802 30450 ft 504 kts 302°
2026-05-08 17:27 -6.57594 111.54825 30793 ft 502 kts 302°
2026-05-08 17:28 -6.55744 111.51849 31128 ft 501 kts 302°
2026-05-08 17:28 -6.53898 111.48878 31452 ft 500 kts 302°
2026-05-08 17:28 -6.52051 111.45918 31781 ft 499 kts 302°
2026-05-08 17:28 -6.50225 111.42999 32114 ft 498 kts 302°
2026-05-08 17:29 -6.48381 111.40058 32461 ft 497 kts 302°
2026-05-08 17:29 -6.46542 111.37129 32809 ft 495 kts 302°
2026-05-08 17:29 -6.44705 111.34205 33147 ft 494 kts 302°
2026-05-08 17:29 -6.42868 111.31280 33499 ft 492 kts 302°
2026-05-08 17:30 -6.41042 111.28374 33790 ft 492 kts 302°
2026-05-08 17:30 -6.39204 111.25446 33837 ft 496 kts 302°
2026-05-08 17:30 -6.35531 111.19598 33871 ft 493 kts 302°
2026-05-08 17:31 -6.31919 111.13780 33870 ft 488 kts 297°
2026-05-08 17:31 -6.29726 111.07368 33893 ft 488 kts 279°
2026-05-08 17:32 -6.29395 111.00564 33897 ft 490 kts 269°
2026-05-08 17:32 -6.29528 110.93682 33889 ft 492 kts 269°
2026-05-08 17:33 -6.29617 110.86841 33882 ft 491 kts 269°
2026-05-08 17:33 -6.29658 110.79980 33885 ft 490 kts 269°
2026-05-08 17:34 -6.29686 110.73131 33884 ft 489 kts 269°
2026-05-08 17:34 -6.29714 110.66289 33889 ft 490 kts 269°
2026-05-08 17:35 -6.29744 110.59429 33885 ft 491 kts 269°
2026-05-08 17:35 -6.29774 110.52561 33883 ft 492 kts 269°
2026-05-08 17:36 -6.29803 110.45687 33885 ft 492 kts 269°
2026-05-08 17:36 -6.29832 110.38812 33882 ft 491 kts 269°
2026-05-08 17:37 -6.29856 110.31940 33881 ft 492 kts 269°
2026-05-08 17:37 -6.29877 110.25098 33878 ft 492 kts 269°
2026-05-08 17:38 -6.29897 110.18219 33879 ft 492 kts 269°
2026-05-08 17:38 -6.29917 110.11339 33879 ft 493 kts 269°
2026-05-08 17:39 -6.29936 110.04442 33877 ft 493 kts 269°
2026-05-08 17:39 -6.29955 109.97536 33877 ft 493 kts 269°
2026-05-08 17:40 -6.29972 109.90637 33877 ft 493 kts 269°
2026-05-08 17:40 -6.29989 109.83741 33877 ft 493 kts 269°
2026-05-08 17:41 -6.30004 109.76839 33876 ft 493 kts 270°
2026-05-08 17:41 -6.30019 109.69987 33877 ft 493 kts 270°
2026-05-08 17:42 -6.30033 109.63094 33877 ft 493 kts 270°
2026-05-08 17:42 -6.30046 109.56191 33877 ft 494 kts 270°
2026-05-08 17:43 -6.30058 109.49294 33878 ft 494 kts 270°
2026-05-08 17:43 -6.30069 109.42389 33881 ft 493 kts 270°
2026-05-08 17:44 -6.30079 109.35492 33880 ft 494 kts 270°
2026-05-08 17:44 -6.30095 109.28589 33883 ft 494 kts 270°
2026-05-08 17:45 -6.30125 109.21680 33884 ft 494 kts 270°
2026-05-08 17:45 -6.30157 109.14772 33888 ft 494 kts 270°
2026-05-08 17:46 -6.30185 109.07867 33891 ft 494 kts 270°
2026-05-08 17:46 -6.30211 109.00947 33892 ft 495 kts 270°
2026-05-08 17:47 -6.30237 108.94030 33895 ft 495 kts 270°
2026-05-08 17:47 -6.30257 108.88268 33893 ft 496 kts 270°
2026-05-08 17:48 -6.30285 108.80204 33893 ft 497 kts 270°
2026-05-08 17:48 -6.30307 108.73248 33891 ft 498 kts 270°
2026-05-08 17:49 -6.30329 108.66281 33889 ft 499 kts 270°
2026-05-08 17:49 -6.30350 108.59313 33890 ft 498 kts 270°
2026-05-08 17:50 -6.30371 108.52366 33890 ft 496 kts 270°
2026-05-08 17:50 -6.30390 108.45429 33894 ft 496 kts 270°
2026-05-08 17:51 -6.30408 108.38489 33894 ft 497 kts 270°
2026-05-08 17:51 -6.29823 108.31578 33898 ft 497 kts 281°
2026-05-08 17:52 -6.28141 108.24835 33900 ft 497 kts 285°
2026-05-08 17:53 -6.25415 108.14771 33892 ft 497 kts 285°
2026-05-08 17:53 -6.23648 108.08095 33890 ft 497 kts 285°
2026-05-08 17:54 -6.21884 108.01367 33894 ft 498 kts 285°
2026-05-08 17:54 -6.20121 107.94636 33885 ft 498 kts 285°
2026-05-08 17:55 -6.18357 107.87918 33889 ft 497 kts 285°
2026-05-08 17:55 -6.16589 107.81199 33884 ft 497 kts 285°
2026-05-08 17:56 -6.15117 107.75612 33891 ft 497 kts 285°
2026-05-08 17:56 -6.13351 107.68895 33888 ft 497 kts 285°
2026-05-08 17:57 -6.11583 107.62171 33886 ft 497 kts 285°
2026-05-08 17:57 -6.09816 107.55457 33886 ft 497 kts 285°
2026-05-08 17:58 -6.08048 107.48740 33888 ft 497 kts 285°
2026-05-08 17:58 -6.06276 107.42020 33886 ft 497 kts 285°
2026-05-08 17:59 -6.04517 107.35351 33890 ft 497 kts 285°
2026-05-08 17:59 -6.03122 107.30065 33890 ft 497 kts 285°
2026-05-08 18:00 -6.01349 107.23347 33891 ft 497 kts 285°
2026-05-08 18:00 -5.98687 107.13270 33888 ft 498 kts 286°
2026-05-08 18:01 -5.96909 107.06541 33886 ft 498 kts 286°
2026-05-08 18:01 -5.94828 106.99912 33896 ft 497 kts 292°
2026-05-08 18:02 -5.92322 106.93429 33890 ft 498 kts 292°
2026-05-08 18:02 -5.89819 106.86997 33876 ft 498 kts 292°
2026-05-08 18:03 -5.87322 106.80494 33873 ft 498 kts 292°
2026-05-08 18:03 -5.84837 106.73977 33866 ft 499 kts 292°
2026-05-08 18:04 -5.82354 106.67461 33869 ft 499 kts 292°
2026-05-08 18:04 -5.79866 106.60939 33875 ft 500 kts 292°
2026-05-08 18:05 -5.77377 106.54420 33872 ft 500 kts 292°
2026-05-08 18:05 -5.74885 106.47896 33868 ft 500 kts 292°
2026-05-08 18:06 -5.72393 106.41375 33868 ft 501 kts 292°
2026-05-08 18:06 -5.69895 106.34841 33870 ft 501 kts 292°
2026-05-08 18:07 -5.67415 106.28356 33870 ft 501 kts 292°
2026-05-08 18:07 -5.64916 106.21825 33877 ft 501 kts 292°
2026-05-08 18:08 -5.62414 106.15287 33881 ft 502 kts 292°
2026-05-08 18:08 -5.59907 106.08739 33883 ft 502 kts 292°
2026-05-08 18:09 -5.57398 106.02189 33884 ft 502 kts 292°
2026-05-08 18:09 -5.54908 105.95689 33882 ft 503 kts 292°
2026-05-08 18:10 -5.52396 105.89138 33881 ft 503 kts 292°
2026-05-08 18:10 -5.49881 105.82577 33882 ft 503 kts 292°
2026-05-08 18:11 -5.47368 105.76025 33886 ft 504 kts 292°
2026-05-08 18:11 -5.44850 105.69459 33887 ft 504 kts 292°
2026-05-08 18:12 -5.42329 105.62893 33883 ft 504 kts 292°
2026-05-08 18:12 -5.39847 105.56314 33891 ft 504 kts 292°
2026-05-08 18:13 -5.37390 105.49724 33887 ft 504 kts 292°
2026-05-08 18:13 -5.34927 105.43134 33887 ft 504 kts 292°
2026-05-08 18:14 -5.32458 105.36547 33887 ft 504 kts 292°
2026-05-08 18:14 -5.29986 105.29953 33886 ft 505 kts 292°
2026-05-08 18:15 -5.27512 105.23357 33887 ft 505 kts 292°
2026-05-08 18:15 -5.24897 105.16879 33891 ft 504 kts 297°
2026-05-08 18:16 -5.21840 105.10557 33881 ft 504 kts 297°
2026-05-08 18:16 -5.18752 105.04241 33890 ft 504 kts 297°
2026-05-08 18:17 -5.15689 104.97910 33894 ft 504 kts 297°
2026-05-08 18:17 -5.12641 104.91570 33897 ft 504 kts 297°
2026-05-08 18:18 -5.09599 104.85238 33910 ft 504 kts 297°
2026-05-08 18:18 -5.06569 104.78939 33923 ft 504 kts 297°
2026-05-08 18:19 -5.03521 104.72607 33915 ft 504 kts 297°
2026-05-08 18:19 -5.00472 104.66273 33922 ft 504 kts 297°
2026-05-08 18:20 -4.97419 104.59934 33923 ft 504 kts 297°
2026-05-08 18:20 -4.94367 104.53597 33925 ft 505 kts 297°
2026-05-08 18:21 -4.91314 104.47260 33932 ft 505 kts 297°
2026-05-08 18:21 -4.88227 104.40935 33926 ft 504 kts 298°
2026-05-08 18:22 -4.85130 104.34640 33937 ft 503 kts 298°
2026-05-08 18:22 -4.82029 104.28333 33923 ft 503 kts 298°
2026-05-08 18:23 -4.78961 104.22084 33931 ft 503 kts 298°
2026-05-08 18:23 -4.75872 104.15786 33923 ft 503 kts 298°
2026-05-08 18:24 -4.72783 104.09492 33927 ft 503 kts 298°
2026-05-08 18:24 -4.69698 104.03207 33925 ft 503 kts 298°
2026-05-08 18:25 -4.66609 103.96917 33921 ft 502 kts 298°
2026-05-08 18:25 -4.63524 103.90637 33925 ft 502 kts 298°
2026-05-08 18:26 -4.60435 103.84350 33930 ft 503 kts 298°
2026-05-08 18:26 -4.57342 103.78057 33936 ft 503 kts 298°
2026-05-08 18:27 -4.54773 103.72832 33927 ft 503 kts 298°
2026-05-08 18:27 -4.51156 103.65476 33939 ft 503 kts 298°
2026-05-08 18:28 -4.48063 103.59187 33945 ft 503 kts 298°
2026-05-08 18:28 -4.44966 103.52892 33946 ft 503 kts 298°
2026-05-08 18:29 -4.41893 103.46648 33946 ft 503 kts 298°
2026-05-08 18:29 -4.38795 103.40355 33945 ft 504 kts 298°
2026-05-08 18:30 -4.35694 103.34057 33956 ft 504 kts 298°
2026-05-08 18:30 -4.32591 103.27756 33948 ft 504 kts 298°
2026-05-08 18:31 -4.29486 103.21452 33937 ft 504 kts 298°
2026-05-08 18:31 -4.26379 103.15146 33935 ft 503 kts 298°
2026-05-08 18:32 -4.23279 103.08856 33919 ft 503 kts 298°
2026-05-08 18:32 -4.20182 103.02574 33921 ft 502 kts 298°
2026-05-08 18:33 -4.17087 102.96297 33913 ft 502 kts 298°
2026-05-08 18:33 -4.14017 102.90073 33918 ft 501 kts 298°
2026-05-08 18:34 -4.10926 102.83808 33910 ft 502 kts 298°
2026-05-08 18:34 -4.07830 102.77533 33892 ft 503 kts 297°
2026-05-08 18:35 -4.04730 102.71253 33888 ft 503 kts 297°
2026-05-08 18:35 -4.01620 102.64952 33883 ft 504 kts 297°
2026-05-08 18:36 -3.98570 102.58774 33885 ft 505 kts 297°
2026-05-08 18:36 -3.95480 102.52518 33876 ft 505 kts 297°
2026-05-08 18:37 -3.92361 102.46203 33876 ft 506 kts 297°
2026-05-08 18:37 -3.89239 102.39882 33867 ft 507 kts 297°
2026-05-08 18:38 -3.86106 102.33544 33865 ft 508 kts 297°
2026-05-08 18:38 -3.82966 102.27208 33858 ft 509 kts 297°
2026-05-08 18:39 -3.79812 102.20853 33859 ft 510 kts 297°
2026-05-08 18:39 -3.76656 102.14492 33858 ft 510 kts 298°
2026-05-08 18:40 -3.73497 102.08124 33856 ft 511 kts 298°
2026-05-08 18:40 -3.70336 102.01752 33854 ft 510 kts 298°
2026-05-08 18:41 -3.67205 101.95442 33852 ft 509 kts 298°
2026-05-08 18:41 -3.64059 101.89101 33848 ft 508 kts 298°
2026-05-08 18:42 -3.60915 101.82769 33850 ft 508 kts 298°
2026-05-08 18:42 -3.57774 101.76444 33847 ft 507 kts 298°
2026-05-08 18:43 -3.54636 101.70124 33846 ft 506 kts 298°
2026-05-08 18:43 -3.51499 101.63810 33847 ft 506 kts 298°
2026-05-08 18:44 -3.48895 101.58567 33847 ft 506 kts 298°
2026-05-08 18:44 -3.45761 101.52260 33847 ft 506 kts 298°
2026-05-08 18:45 -3.42627 101.45954 33855 ft 505 kts 298°
2026-05-08 18:45 -3.39499 101.39663 33843 ft 505 kts 298°
2026-05-08 18:46 -3.36368 101.33366 33846 ft 505 kts 298°
2026-05-08 18:46 -3.33240 101.27076 33849 ft 504 kts 298°
2026-05-08 18:47 -3.30116 101.20794 33853 ft 504 kts 298°
2026-05-08 18:47 -3.26989 101.14510 33844 ft 504 kts 298°
2026-05-08 18:48 -3.23864 101.08229 33848 ft 504 kts 298°
2026-05-08 18:48 -3.20742 101.01955 33846 ft 504 kts 298°
2026-05-08 18:49 -3.17616 100.95676 33843 ft 504 kts 298°
2026-05-08 18:49 -3.14492 100.89400 33842 ft 504 kts 298°
2026-05-08 18:50 -3.11389 100.83168 33843 ft 504 kts 298°
2026-05-08 18:50 -3.08265 100.76897 33845 ft 503 kts 298°
2026-05-08 18:51 -3.05140 100.70624 33845 ft 503 kts 298°
2026-05-08 18:51 -3.02018 100.64357 33846 ft 503 kts 298°
2026-05-08 18:52 -2.98896 100.58091 33844 ft 503 kts 298°
2026-05-08 18:52 -2.95772 100.51823 33839 ft 503 kts 298°
2026-05-08 18:53 -2.92650 100.45559 33839 ft 503 kts 298°
2026-05-08 18:53 -2.89521 100.39283 33845 ft 503 kts 297°
2026-05-08 18:54 -2.86394 100.33011 33842 ft 503 kts 297°
2026-05-08 18:54 -2.83268 100.26744 33842 ft 503 kts 297°
2026-05-08 18:55 -2.78580 100.17345 33838 ft 503 kts 297°
2026-05-08 18:56 -2.75452 100.11076 33841 ft 503 kts 297°
2026-05-08 18:56 -2.72325 100.04809 33838 ft 503 kts 297°
2026-05-08 18:57 -2.69219 99.98585 33837 ft 503 kts 297°
2026-05-08 18:57 -2.66091 99.92319 33837 ft 503 kts 297°
2026-05-08 18:58 -2.62967 99.86059 33838 ft 503 kts 297°
2026-05-08 18:58 -2.59840 99.79797 33838 ft 503 kts 297°
2026-05-08 18:59 -2.56715 99.73538 33839 ft 503 kts 297°
2026-05-08 18:59 -2.53589 99.67279 33836 ft 503 kts 297°
2026-05-08 19:00 -2.50460 99.61011 33838 ft 503 kts 297°
2026-05-08 19:00 -2.47335 99.54750 33837 ft 503 kts 297°
2026-05-08 19:01 -2.44309 99.48425 33838 ft 504 kts 296°
2026-05-08 19:01 -2.41364 99.42124 33837 ft 504 kts 296°
2026-05-08 19:02 -2.38386 99.35775 33839 ft 504 kts 296°
2026-05-08 19:02 -2.35391 99.29426 33838 ft 505 kts 296°
2026-05-08 19:03 -2.32391 99.23079 33839 ft 505 kts 296°
2026-05-08 19:03 -2.29388 99.16730 33841 ft 505 kts 296°
2026-05-08 19:04 -2.26380 99.10368 33841 ft 505 kts 296°
2026-05-08 19:04 -2.23392 99.04047 33842 ft 506 kts 296°
2026-05-08 19:05 -2.20383 98.97684 33840 ft 506 kts 296°
2026-05-08 19:05 -2.17377 98.91327 33837 ft 505 kts 296°
2026-05-08 19:06 -2.14373 98.84975 33838 ft 505 kts 296°
2026-05-08 19:06 -2.11368 98.78622 33836 ft 505 kts 296°
2026-05-08 19:07 -2.08363 98.72270 33839 ft 505 kts 296°
2026-05-08 19:07 -2.05358 98.65919 33840 ft 505 kts 296°
2026-05-08 19:08 -2.02369 98.59602 33842 ft 505 kts 296°
2026-05-08 19:08 -1.99364 98.53252 33840 ft 505 kts 296°
2026-05-08 19:09 -1.96362 98.46909 33840 ft 505 kts 296°
2026-05-08 19:09 -1.93361 98.40570 33842 ft 505 kts 296°
2026-05-08 19:10 -1.90357 98.34223 33843 ft 504 kts 296°
2026-05-08 19:10 -1.87358 98.27888 33841 ft 504 kts 296°
2026-05-08 19:11 -1.84360 98.21556 33839 ft 504 kts 296°
2026-05-08 19:11 -1.81361 98.15224 33840 ft 504 kts 296°
2026-05-08 19:12 -1.78365 98.08897 33839 ft 503 kts 296°
2026-05-08 19:12 -1.75371 98.02576 33843 ft 503 kts 296°
2026-05-08 19:13 -1.72375 97.96252 33842 ft 503 kts 296°
2026-05-08 19:13 -1.69382 97.89933 33839 ft 503 kts 296°
2026-05-08 19:14 -1.66389 97.83616 33841 ft 503 kts 296°
2026-05-08 19:14 -1.63399 97.77304 33841 ft 503 kts 296°
2026-05-08 19:15 -1.60427 97.71031 33841 ft 502 kts 296°
2026-05-08 19:15 -1.57414 97.64731 33840 ft 502 kts 296°
2026-05-08 19:16 -1.54345 97.58459 33841 ft 502 kts 296°
2026-05-08 19:16 -1.51274 97.52199 33839 ft 502 kts 296°
2026-05-08 19:17 -1.48209 97.45928 33842 ft 502 kts 296°
2026-05-08 19:17 -1.45150 97.39657 33841 ft 502 kts 296°
2026-05-08 19:18 -1.42089 97.33381 33839 ft 502 kts 296°
2026-05-08 19:18 -1.39029 97.27109 33839 ft 502 kts 297°
2026-05-08 19:19 -1.35985 97.20872 33841 ft 502 kts 297°
2026-05-08 19:19 -1.32925 97.14600 33843 ft 502 kts 297°
2026-05-08 19:20 -1.29863 97.08325 33842 ft 503 kts 297°
2026-05-08 19:20 -1.26797 97.02045 33842 ft 503 kts 297°
2026-05-08 19:21 -1.23730 96.95761 33840 ft 503 kts 297°
2026-05-08 19:21 -1.20669 96.89489 33838 ft 502 kts 297°
2026-05-08 19:22 -1.17605 96.83213 33842 ft 503 kts 297°
2026-05-08 19:22 -1.14535 96.76926 33842 ft 502 kts 297°
2026-05-08 19:23 -1.11473 96.70654 33844 ft 502 kts 297°
2026-05-08 19:23 -1.08408 96.64378 33843 ft 502 kts 297°
2026-05-08 19:24 -1.05366 96.58148 33841 ft 502 kts 297°
2026-05-08 19:24 -1.02307 96.51883 33842 ft 502 kts 297°
2026-05-08 19:25 -0.99246 96.45616 33842 ft 501 kts 297°
2026-05-08 19:25 -0.96185 96.39347 33841 ft 501 kts 297°
2026-05-08 19:26 -0.93125 96.33082 33841 ft 501 kts 297°
2026-05-08 19:26 -0.90067 96.26822 33840 ft 501 kts 297°
2026-05-08 19:27 -0.87006 96.20557 33842 ft 501 kts 297°
2026-05-08 19:27 -0.83965 96.14331 33839 ft 501 kts 297°
2026-05-08 19:28 -0.80906 96.08069 33842 ft 501 kts 297°
2026-05-08 19:28 -0.77846 96.01805 33841 ft 502 kts 297°
2026-05-08 19:29 -0.74787 95.95544 33842 ft 502 kts 297°
2026-05-08 19:29 -0.71726 95.89278 33841 ft 502 kts 297°
2026-05-08 19:30 -0.68665 95.83014 33838 ft 501 kts 297°
2026-05-08 19:30 -0.65608 95.76757 33845 ft 501 kts 297°
2026-05-08 19:31 -0.62547 95.70493 33840 ft 501 kts 297°
2026-05-08 19:31 -0.59488 95.64233 33843 ft 501 kts 297°
2026-05-08 19:32 -0.56947 95.59033 33844 ft 501 kts 298°
2026-05-08 19:32 -0.53887 95.52771 33843 ft 501 kts 298°
2026-05-08 19:33 -0.50827 95.46509 33844 ft 501 kts 298°
2026-05-08 19:33 -0.47770 95.40254 33843 ft 501 kts 298°
2026-05-08 19:34 -0.44708 95.33988 33844 ft 501 kts 298°
2026-05-08 19:34 -0.41670 95.27772 33843 ft 501 kts 298°
2026-05-08 19:35 -0.38613 95.21516 33846 ft 501 kts 298°
2026-05-08 19:35 -0.35551 95.15250 33845 ft 502 kts 298°
2026-05-08 19:36 -0.32484 95.08975 33846 ft 502 kts 298°
2026-05-08 19:36 -0.29420 95.02710 33844 ft 502 kts 298°
2026-05-08 19:37 -0.26358 94.96449 33841 ft 502 kts 298°
2026-05-08 19:37 -0.23288 94.90168 33840 ft 502 kts 298°
2026-05-08 19:38 -0.20224 94.83899 33842 ft 503 kts 298°
2026-05-08 19:38 -0.17156 94.77623 33840 ft 503 kts 297°
2026-05-08 19:39 -0.14088 94.71346 33839 ft 503 kts 297°
2026-05-08 19:39 -0.11036 94.65102 33838 ft 503 kts 297°
2026-05-08 19:40 -0.07963 94.58815 33839 ft 504 kts 297°
2026-05-08 19:40 -0.04886 94.52520 33839 ft 504 kts 297°
2026-05-08 19:41 -0.01812 94.46232 33839 ft 504 kts 297°
2026-05-08 19:41 0.01263 94.39940 33840 ft 504 kts 297°
2026-05-08 19:42 0.04344 94.33637 33838 ft 505 kts 297°
2026-05-08 19:42 0.07424 94.27336 33839 ft 505 kts 297°
2026-05-08 19:43 0.10507 94.21029 33837 ft 505 kts 297°
2026-05-08 19:43 0.13589 94.14723 33837 ft 505 kts 297°
2026-05-08 19:44 0.16674 94.08412 33840 ft 505 kts 297°
2026-05-08 19:44 0.19757 94.02104 33838 ft 505 kts 298°
2026-05-08 19:45 0.22842 93.95792 33838 ft 505 kts 297°
2026-05-08 19:45 0.25909 93.89518 33837 ft 505 kts 297°
2026-05-08 19:46 0.28995 93.83202 33834 ft 505 kts 297°
2026-05-08 19:46 0.33623 93.73731 33838 ft 505 kts 297°
2026-05-08 19:47 0.36709 93.67417 33835 ft 505 kts 297°
2026-05-08 19:47 0.39787 93.61113 33838 ft 505 kts 297°
2026-05-08 19:48 0.42846 93.54843 33838 ft 505 kts 297°
2026-05-08 19:48 0.45922 93.48538 33836 ft 505 kts 297°
2026-05-08 19:49 0.48997 93.42232 33833 ft 504 kts 297°
2026-05-08 19:49 0.52065 93.35943 33833 ft 504 kts 297°
2026-05-08 19:50 0.55132 93.29653 33833 ft 503 kts 297°
2026-05-08 19:50 0.58197 93.23369 33834 ft 503 kts 297°
2026-05-08 19:51 0.61266 93.17076 33832 ft 503 kts 297°
2026-05-08 19:51 0.64309 93.10836 33834 ft 503 kts 297°
2026-05-08 19:52 0.67375 93.04550 33833 ft 503 kts 297°
2026-05-08 19:52 0.70439 92.98267 33833 ft 503 kts 297°
2026-05-08 19:53 0.73502 92.91984 33834 ft 503 kts 297°
2026-05-08 19:53 0.76563 92.85707 33834 ft 502 kts 297°
2026-05-08 19:54 0.79623 92.79432 33833 ft 502 kts 297°
2026-05-08 19:54 0.82683 92.73155 33831 ft 502 kts 297°
2026-05-08 19:55 0.85740 92.66885 33833 ft 502 kts 297°
2026-05-08 19:55 0.88792 92.60623 33834 ft 501 kts 297°
2026-05-08 19:56 0.91824 92.54404 33834 ft 501 kts 297°
2026-05-08 19:56 0.94892 92.48111 33833 ft 500 kts 297°
2026-05-08 19:57 0.97915 92.41909 33834 ft 500 kts 297°
2026-05-08 19:57 1.00956 92.35669 33830 ft 499 kts 297°
2026-05-08 19:58 1.03991 92.29442 33833 ft 498 kts 297°
2026-05-08 19:58 1.07025 92.23215 33831 ft 498 kts 297°
2026-05-08 19:59 1.10053 92.17001 33830 ft 497 kts 297°
2026-05-08 19:59 1.13078 92.10791 33830 ft 496 kts 297°
2026-05-08 20:00 1.16104 92.04580 33833 ft 496 kts 297°
2026-05-08 20:00 1.19126 91.98384 33832 ft 496 kts 297°
2026-05-08 20:01 1.22194 91.92205 33831 ft 495 kts 298°
2026-05-08 20:01 1.25250 91.86086 33834 ft 495 kts 298°
2026-05-08 20:02 1.28323 91.79922 33831 ft 496 kts 298°
2026-05-08 20:02 1.31394 91.73747 33835 ft 496 kts 298°
2026-05-08 20:03 1.34461 91.67577 33838 ft 496 kts 298°
2026-05-08 20:03 1.37536 91.61389 33831 ft 497 kts 298°
2026-05-08 20:04 1.40613 91.55198 33838 ft 497 kts 298°
2026-05-08 20:04 1.43690 91.49008 33841 ft 497 kts 298°
2026-05-08 20:05 1.46766 91.42817 33835 ft 497 kts 298°
2026-05-08 20:05 1.49843 91.36625 33834 ft 497 kts 298°
2026-05-08 20:06 1.52899 91.30476 33836 ft 497 kts 298°
2026-05-08 20:06 1.55975 91.24285 33835 ft 497 kts 298°
2026-05-08 20:07 1.59050 91.18093 33836 ft 497 kts 298°
2026-05-08 20:07 1.62126 91.11902 33836 ft 497 kts 298°
2026-05-08 20:08 1.65199 91.05715 33837 ft 497 kts 298°
2026-05-08 20:08 1.68274 90.99524 33836 ft 497 kts 298°
2026-05-08 20:09 1.71349 90.93332 33834 ft 497 kts 298°
2026-05-08 20:09 1.74424 90.87139 33835 ft 497 kts 298°
2026-05-08 20:10 1.77498 90.80948 33835 ft 497 kts 298°
2026-05-08 20:10 1.80573 90.74753 33837 ft 497 kts 298°
2026-05-08 20:11 1.83629 90.68598 33840 ft 498 kts 298°
2026-05-08 20:11 1.86708 90.62395 33837 ft 498 kts 298°
2026-05-08 20:12 1.89790 90.56185 33837 ft 498 kts 298°
2026-05-08 20:12 1.92868 90.49982 33837 ft 498 kts 298°
2026-05-08 20:13 1.95949 90.43774 33842 ft 499 kts 298°
2026-05-08 20:13 1.99037 90.37549 33841 ft 499 kts 298°
2026-05-08 20:14 2.02101 90.31373 33841 ft 499 kts 297°
2026-05-08 20:14 2.05187 90.25151 33843 ft 500 kts 297°
2026-05-08 20:15 2.08277 90.18921 33840 ft 500 kts 297°
2026-05-08 20:15 2.11364 90.12695 33845 ft 500 kts 297°
2026-05-08 20:16 2.14456 90.06460 33846 ft 501 kts 297°
2026-05-08 20:16 2.17547 90.00224 33841 ft 501 kts 297°
2026-05-08 20:17 2.20642 89.93980 33844 ft 501 kts 297°
2026-05-08 20:17 2.23735 89.87739 33844 ft 501 kts 297°
2026-05-08 20:18 2.26828 89.81496 33843 ft 501 kts 297°
2026-05-08 20:18 2.29924 89.75247 33849 ft 502 kts 297°
2026-05-08 20:19 2.33020 89.68994 33844 ft 502 kts 297°
2026-05-08 20:19 2.36117 89.62734 33844 ft 502 kts 297°
2026-05-08 20:20 2.39190 89.56521 33846 ft 502 kts 297°
2026-05-08 20:20 2.42291 89.50250 33845 ft 502 kts 297°
2026-05-08 20:21 2.45389 89.43984 33845 ft 503 kts 297°
2026-05-08 20:21 2.48488 89.37716 33845 ft 503 kts 297°
2026-05-08 20:22 2.51585 89.31449 33844 ft 503 kts 297°
2026-05-08 20:22 2.54161 89.26239 33844 ft 503 kts 297°
2026-05-08 20:23 2.57256 89.19974 33844 ft 503 kts 297°
2026-05-08 20:23 2.60356 89.13701 33842 ft 503 kts 297°
2026-05-08 20:24 2.63455 89.07428 33847 ft 503 kts 297°
2026-05-08 20:24 2.66554 89.01154 33845 ft 503 kts 297°
2026-05-08 20:25 2.69630 88.94925 33846 ft 503 kts 297°
2026-05-08 20:25 2.72731 88.88645 33844 ft 504 kts 297°
2026-05-08 20:26 2.75834 88.82360 33844 ft 504 kts 297°
2026-05-08 20:26 2.78935 88.76079 33841 ft 503 kts 297°
2026-05-08 20:27 2.82033 88.69801 33844 ft 503 kts 297°
2026-05-08 20:27 2.85143 88.63499 33853 ft 506 kts 296°
2026-05-08 20:28 2.88262 88.57177 33846 ft 507 kts 296°
2026-05-08 20:28 2.91360 88.50894 33838 ft 506 kts 296°
2026-05-08 20:29 2.94489 88.44597 33840 ft 504 kts 297°
2026-05-08 20:29 2.97749 88.38406 33841 ft 503 kts 298°
2026-05-08 20:30 3.01048 88.32230 33844 ft 504 kts 298°
2026-05-08 20:30 3.04338 88.26022 33842 ft 507 kts 298°
2026-05-08 20:31 3.07638 88.19761 33844 ft 509 kts 298°
2026-05-08 20:31 3.10926 88.13513 33833 ft 506 kts 298°
2026-05-08 20:32 3.14208 88.07281 33839 ft 505 kts 298°
2026-05-08 20:32 3.17482 88.01064 33838 ft 505 kts 298°
2026-05-08 20:33 3.20754 87.94850 33839 ft 504 kts 298°
2026-05-08 20:33 3.23995 87.88694 33836 ft 502 kts 298°
2026-05-08 20:34 3.27245 87.82518 33839 ft 501 kts 298°
2026-05-08 20:35 3.32099 87.73278 33835 ft 499 kts 297°
2026-05-08 20:35 3.35227 87.67053 33841 ft 502 kts 296°
2026-05-08 20:36 3.38325 87.60772 33837 ft 504 kts 296°
2026-05-08 20:36 3.41441 87.54471 33840 ft 506 kts 296°
2026-05-08 20:37 3.44579 87.48160 33830 ft 506 kts 297°
2026-05-08 20:37 3.47715 87.41863 33828 ft 505 kts 297°
2026-05-08 20:38 3.50842 87.35583 33831 ft 503 kts 297°
2026-05-08 20:38 3.53950 87.29338 33826 ft 499 kts 297°
2026-05-08 20:39 3.57017 87.23174 33826 ft 497 kts 297°
2026-05-08 20:39 3.60098 87.16980 33840 ft 499 kts 296°
2026-05-08 20:40 3.63203 87.10736 33832 ft 503 kts 296°
2026-05-08 20:40 3.66331 87.04445 33827 ft 504 kts 296°
2026-05-08 20:41 3.69456 86.98158 33828 ft 505 kts 296°
2026-05-08 20:41 3.72579 86.91874 33827 ft 502 kts 296°
2026-05-08 20:42 3.75683 86.85626 33829 ft 500 kts 296°
2026-05-08 20:42 3.78784 86.79385 33833 ft 501 kts 296°
2026-05-08 20:43 3.81885 86.73140 33831 ft 501 kts 296°
2026-05-08 20:43 3.84989 86.66890 33832 ft 501 kts 297°
2026-05-08 20:44 3.88093 86.60637 33829 ft 502 kts 296°
2026-05-08 20:44 3.91176 86.54426 33832 ft 500 kts 297°
2026-05-08 20:45 3.94266 86.48199 33831 ft 499 kts 296°
2026-05-08 20:45 3.97359 86.41965 33837 ft 502 kts 296°
2026-05-08 20:46 4.00470 86.35693 33831 ft 503 kts 296°
2026-05-08 20:46 4.03595 86.29392 33837 ft 506 kts 296°
2026-05-08 20:47 4.06732 86.23065 33829 ft 507 kts 296°
2026-05-08 20:47 4.09859 86.16756 33828 ft 504 kts 296°
2026-05-08 20:48 4.12970 86.10476 33826 ft 502 kts 296°
2026-05-08 20:48 4.16068 86.04223 33831 ft 501 kts 296°
2026-05-08 20:49 4.19171 85.97958 33837 ft 504 kts 296°
2026-05-08 20:49 4.22300 85.91640 33837 ft 509 kts 296°
2026-05-08 20:50 4.25444 85.85290 33829 ft 507 kts 296°
2026-05-08 20:50 4.28543 85.79028 33821 ft 502 kts 296°
2026-05-08 20:51 4.31653 85.72744 33830 ft 500 kts 296°
2026-05-08 20:51 4.34733 85.66517 33841 ft 504 kts 296°
2026-05-08 20:52 4.37857 85.60199 33836 ft 508 kts 296°
2026-05-08 20:52 4.40997 85.53851 33829 ft 508 kts 296°
2026-05-08 20:53 4.44126 85.47520 33827 ft 505 kts 296°
2026-05-08 20:53 4.47235 85.41229 33830 ft 503 kts 296°
2026-05-08 20:54 4.50341 85.34942 33836 ft 504 kts 296°
2026-05-08 20:54 4.53455 85.28638 33834 ft 506 kts 296°
2026-05-08 20:55 4.56583 85.22303 33832 ft 506 kts 296°
2026-05-08 20:55 4.59705 85.15979 33831 ft 506 kts 296°
2026-05-08 20:56 4.62824 85.09660 33834 ft 505 kts 296°
2026-05-08 20:56 4.65940 85.03345 33834 ft 506 kts 296°
2026-05-08 20:57 4.69059 84.97021 33834 ft 506 kts 296°
2026-05-08 20:57 4.72159 84.90735 33833 ft 506 kts 296°
2026-05-08 20:58 4.75274 84.84418 33831 ft 506 kts 296°
2026-05-08 20:58 4.78389 84.78096 33830 ft 506 kts 296°
2026-05-08 20:59 4.81504 84.71774 33833 ft 506 kts 296°
2026-05-08 20:59 4.84620 84.65450 33833 ft 506 kts 296°
2026-05-08 21:00 4.87737 84.59120 33832 ft 506 kts 296°
2026-05-08 21:00 4.90850 84.52796 33828 ft 506 kts 296°
2026-05-08 21:01 4.93965 84.46467 33829 ft 506 kts 296°
2026-05-08 21:01 4.97082 84.40134 33830 ft 506 kts 296°
2026-05-08 21:02 5.00193 84.33808 33831 ft 506 kts 296°
2026-05-08 21:02 5.03305 84.27479 33833 ft 506 kts 296°
2026-05-08 21:03 5.06401 84.21182 33827 ft 507 kts 296°
2026-05-08 21:03 5.09515 84.14844 33827 ft 506 kts 296°
2026-05-08 21:04 5.12628 84.08508 33823 ft 507 kts 296°
2026-05-08 21:04 5.15745 84.02161 33831 ft 507 kts 296°
2026-05-08 21:05 5.18831 83.95807 33837 ft 506 kts 296°
2026-05-08 21:05 5.21854 83.89426 33827 ft 506 kts 296°
2026-05-08 21:06 5.24866 83.83047 33829 ft 506 kts 296°
2026-05-08 21:06 5.27890 83.76665 33829 ft 506 kts 296°
2026-05-08 21:07 5.30920 83.70281 33831 ft 506 kts 296°
2026-05-08 21:07 5.33948 83.63903 33829 ft 506 kts 296°
2026-05-08 21:08 5.36467 83.58595 33829 ft 506 kts 296°
2026-05-08 21:08 5.39987 83.51173 33826 ft 507 kts 296°
2026-05-08 21:09 5.43014 83.44787 33825 ft 507 kts 295°
2026-05-08 21:09 5.46049 83.38384 33825 ft 507 kts 295°
2026-05-08 21:10 5.48568 83.33067 33824 ft 507 kts 295°
2026-05-08 21:10 5.51597 83.26672 33823 ft 507 kts 295°
2026-05-08 21:11 5.54633 83.20260 33822 ft 508 kts 295°
2026-05-08 21:11 5.57662 83.13860 33821 ft 508 kts 295°
2026-05-08 21:12 5.60695 83.07452 33821 ft 507 kts 295°
2026-05-08 21:12 5.63722 83.01051 33818 ft 507 kts 295°
2026-05-08 21:13 5.66746 82.94656 33822 ft 507 kts 295°
2026-05-08 21:13 5.69775 82.88249 33820 ft 508 kts 295°
2026-05-08 21:14 5.72782 82.81885 33819 ft 508 kts 295°
2026-05-08 21:14 5.75810 82.75477 33820 ft 508 kts 295°
2026-05-08 21:15 5.78837 82.69065 33816 ft 508 kts 295°
2026-05-08 21:15 5.81864 82.62654 33819 ft 508 kts 295°
2026-05-08 21:16 5.84889 82.56244 33814 ft 508 kts 295°
2026-05-08 21:16 5.87916 82.49827 33811 ft 508 kts 295°
2026-05-08 21:17 5.90923 82.43449 33816 ft 508 kts 295°
2026-05-08 21:17 5.93945 82.37038 33813 ft 508 kts 295°
2026-05-08 21:18 5.96965 82.30631 33814 ft 507 kts 295°
2026-05-08 21:18 5.99984 82.24220 33813 ft 507 kts 295°
2026-05-08 21:19 6.03006 82.17803 33814 ft 507 kts 295°
2026-05-08 21:19 6.06019 82.11401 33812 ft 507 kts 295°
2026-05-08 21:20 6.09035 82.04991 33811 ft 507 kts 295°
2026-05-08 21:20 6.12050 81.98579 33808 ft 508 kts 295°
2026-05-08 21:21 6.15073 81.92166 33811 ft 508 kts 295°
2026-05-08 21:21 6.18091 81.85804 33813 ft 507 kts 295°
2026-05-08 21:22 6.21127 81.79399 33812 ft 507 kts 295°
2026-05-08 21:22 6.24159 81.72993 33811 ft 507 kts 295°
2026-05-08 21:23 6.27185 81.66596 33811 ft 507 kts 295°
2026-05-08 21:23 6.30213 81.60192 33813 ft 507 kts 295°
2026-05-08 21:24 6.33238 81.53791 33812 ft 507 kts 295°
2026-05-08 21:24 6.36338 81.47488 33815 ft 507 kts 297°
2026-05-08 21:25 6.39549 81.41178 33809 ft 506 kts 297°
2026-05-08 21:25 6.42750 81.34868 33814 ft 506 kts 297°
2026-05-08 21:26 6.45929 81.28553 33813 ft 506 kts 297°
2026-05-08 21:26 6.49096 81.22246 33810 ft 506 kts 297°
2026-05-08 21:27 6.52266 81.15929 33817 ft 505 kts 297°
2026-05-08 21:27 6.55433 81.09621 33819 ft 505 kts 297°
2026-05-08 21:28 6.58599 81.03312 33829 ft 505 kts 297°
2026-05-08 21:28 6.61739 80.97052 33844 ft 505 kts 297°
2026-05-08 21:29 6.64901 80.90746 33847 ft 504 kts 297°
2026-05-08 21:29 6.68064 80.84436 33855 ft 505 kts 296°
2026-05-08 21:30 6.71222 80.78133 33860 ft 505 kts 297°
2026-05-08 21:30 6.74379 80.71828 33864 ft 504 kts 296°
2026-05-08 21:31 6.77505 80.65514 33859 ft 504 kts 296°
2026-05-08 21:31 6.80610 80.59188 33860 ft 504 kts 296°
2026-05-08 21:32 6.83713 80.52871 33854 ft 504 kts 296°
2026-05-08 21:32 6.86819 80.46555 33842 ft 503 kts 296°
2026-05-08 21:33 6.89921 80.40248 33841 ft 503 kts 296°
2026-05-08 21:33 6.93021 80.33942 33832 ft 503 kts 296°
2026-05-08 21:34 6.96105 80.27665 33826 ft 502 kts 296°
2026-05-08 21:34 6.99200 80.21364 33814 ft 502 kts 296°
2026-05-08 21:35 7.02291 80.15068 33806 ft 501 kts 296°
2026-05-08 21:35 7.05372 80.08789 33792 ft 500 kts 296°
2026-05-08 21:36 7.08448 80.02519 33783 ft 500 kts 296°
2026-05-08 21:36 7.11523 79.96247 33776 ft 499 kts 296°
2026-05-08 21:37 7.14595 79.89976 33774 ft 498 kts 296°
2026-05-08 21:37 7.17628 79.83747 33776 ft 498 kts 296°
2026-05-08 21:38 7.20614 79.77442 33779 ft 499 kts 295°
2026-05-08 21:38 7.23591 79.71126 33782 ft 499 kts 295°
2026-05-08 21:39 7.26573 79.64817 33786 ft 499 kts 295°
2026-05-08 21:39 7.29565 79.58500 33791 ft 500 kts 296°
2026-05-08 21:40 7.32560 79.52176 33792 ft 501 kts 295°
2026-05-08 21:40 7.35560 79.45835 33796 ft 502 kts 296°
2026-05-08 21:41 7.40064 79.36312 33797 ft 502 kts 296°
2026-05-08 21:41 7.43073 79.29945 33797 ft 503 kts 296°
2026-05-08 21:42 7.46079 79.23582 33799 ft 503 kts 296°
2026-05-08 21:42 7.49070 79.17247 33798 ft 504 kts 296°
2026-05-08 21:43 7.52086 79.10828 33798 ft 503 kts 295°
2026-05-08 21:43 7.54884 79.04410 33800 ft 503 kts 293°
2026-05-08 21:44 7.57626 78.97925 33801 ft 501 kts 293°
2026-05-08 21:44 7.60376 78.91474 33805 ft 500 kts 294°
2026-05-08 21:45 7.63147 78.85027 33804 ft 500 kts 294°
2026-05-08 21:45 7.65912 78.78607 33804 ft 499 kts 294°
2026-05-08 21:46 7.68657 78.72230 33808 ft 499 kts 294°
2026-05-08 21:46 7.71415 78.65814 33801 ft 499 kts 294°
2026-05-08 21:47 7.74174 78.59392 33808 ft 499 kts 294°
2026-05-08 21:47 7.76929 78.52976 33809 ft 499 kts 294°
2026-05-08 21:48 7.79685 78.46554 33806 ft 499 kts 294°
2026-05-08 21:48 7.82441 78.40131 33805 ft 499 kts 294°
2026-05-08 21:49 7.85194 78.33710 33805 ft 499 kts 294°
2026-05-08 21:49 7.87952 78.27273 33807 ft 500 kts 294°
2026-05-08 21:50 7.90695 78.20867 33806 ft 500 kts 294°
2026-05-08 21:50 7.93455 78.14427 33806 ft 500 kts 294°
2026-05-08 21:51 7.96288 78.08016 33806 ft 501 kts 295°
2026-05-08 21:51 7.99159 78.01608 33806 ft 501 kts 295°
2026-05-08 21:52 8.02025 77.95184 33809 ft 502 kts 294°
2026-05-08 21:52 8.04880 77.88761 33811 ft 502 kts 294°
2026-05-08 21:53 8.07736 77.82321 33810 ft 502 kts 294°
2026-05-08 21:53 8.10589 77.75889 33817 ft 502 kts 294°
2026-05-08 21:54 8.13442 77.69453 33815 ft 502 kts 294°
2026-05-08 21:54 8.16281 77.63046 33816 ft 503 kts 294°
2026-05-08 21:55 8.19132 77.56611 33820 ft 502 kts 294°
2026-05-08 21:56 8.23411 77.46944 33818 ft 503 kts 294°
2026-05-08 21:56 8.26264 77.40495 33835 ft 503 kts 294°
2026-05-08 21:57 8.29115 77.34047 33831 ft 502 kts 294°
2026-05-08 21:57 8.31960 77.27609 33829 ft 502 kts 295°
2026-05-08 21:58 8.34325 77.22254 33824 ft 503 kts 295°
2026-05-08 21:58 8.37173 77.15802 33817 ft 503 kts 295°
2026-05-08 21:59 8.40018 77.09354 33813 ft 503 kts 295°
2026-05-08 21:59 8.42863 77.02903 33803 ft 503 kts 295°
2026-05-08 22:00 8.45709 76.96447 33803 ft 502 kts 295°
2026-05-08 22:00 8.48945 76.90227 33805 ft 500 kts 305°
2026-05-08 22:01 8.52991 76.84539 33811 ft 498 kts 307°
2026-05-08 22:01 8.57088 76.78895 33805 ft 497 kts 307°
2026-05-08 22:02 8.61141 76.73253 33807 ft 496 kts 307°
2026-05-08 22:02 8.65170 76.67597 33812 ft 495 kts 307°
2026-05-08 22:03 8.69159 76.61983 33815 ft 494 kts 307°
2026-05-08 22:03 8.73166 76.56341 33815 ft 494 kts 307°
2026-05-08 22:04 8.77172 76.50700 33811 ft 493 kts 307°
2026-05-08 22:04 8.81173 76.45066 33813 ft 493 kts 307°
2026-05-08 22:05 8.85169 76.39437 33813 ft 493 kts 307°
2026-05-08 22:05 8.89168 76.33801 33808 ft 492 kts 307°
2026-05-08 22:06 8.93163 76.28168 33805 ft 492 kts 307°
2026-05-08 22:06 8.97150 76.22544 33806 ft 492 kts 307°
2026-05-08 22:07 9.01140 76.16913 33802 ft 492 kts 307°
2026-05-08 22:07 9.05128 76.11283 33800 ft 492 kts 306°
2026-05-08 22:08 9.09117 76.05649 33801 ft 493 kts 306°
2026-05-08 22:08 9.13111 76.00006 33804 ft 493 kts 306°
2026-05-08 22:09 9.17071 75.94407 33801 ft 493 kts 306°
2026-05-08 22:09 9.21061 75.88763 33806 ft 493 kts 306°
2026-05-08 22:10 9.25046 75.83125 33802 ft 492 kts 306°
2026-05-08 22:10 9.29032 75.77482 33801 ft 492 kts 306°
2026-05-08 22:11 9.33015 75.71842 33805 ft 493 kts 306°
2026-05-08 22:11 9.37000 75.66196 33805 ft 493 kts 306°
2026-05-08 22:12 9.40985 75.60547 33801 ft 493 kts 306°
2026-05-08 22:12 9.44971 75.54895 33802 ft 493 kts 306°
2026-05-08 22:13 9.48956 75.49240 33804 ft 493 kts 306°
2026-05-08 22:13 9.52942 75.43582 33802 ft 493 kts 306°
2026-05-08 22:14 9.56929 75.37920 33802 ft 494 kts 306°
2026-05-08 22:14 9.60919 75.32252 33803 ft 494 kts 306°
2026-05-08 22:15 9.64889 75.26608 33804 ft 495 kts 306°
2026-05-08 22:15 9.68911 75.20889 33802 ft 495 kts 306°
2026-05-08 22:16 9.72880 75.15241 33803 ft 495 kts 306°
2026-05-08 22:16 9.76881 75.09546 33802 ft 496 kts 306°
2026-05-08 22:17 9.80882 75.03848 33803 ft 496 kts 306°
2026-05-08 22:17 9.84882 74.98149 33801 ft 496 kts 306°
2026-05-08 22:18 9.88880 74.92450 33804 ft 496 kts 306°
2026-05-08 22:18 9.92886 74.86737 33803 ft 497 kts 306°
2026-05-08 22:19 9.96892 74.81021 33802 ft 497 kts 306°
2026-05-08 22:19 10.00894 74.75307 33803 ft 497 kts 306°
2026-05-08 22:20 10.04902 74.69583 33806 ft 498 kts 306°
2026-05-08 22:20 10.08910 74.63854 33809 ft 498 kts 306°
2026-05-08 22:21 10.12926 74.58113 33802 ft 499 kts 306°
2026-05-08 22:21 10.16945 74.52364 33809 ft 499 kts 306°
2026-05-08 22:22 10.20957 74.46622 33804 ft 499 kts 306°
2026-05-08 22:22 10.24946 74.40910 33800 ft 499 kts 306°
2026-05-08 22:23 10.28956 74.35165 33805 ft 499 kts 306°
2026-05-08 22:23 10.32966 74.29416 33804 ft 499 kts 306°
2026-05-08 22:24 10.36977 74.23662 33808 ft 499 kts 306°
2026-05-08 22:24 10.40985 74.17916 33805 ft 498 kts 306°
2026-05-08 22:25 10.45017 74.12199 33801 ft 498 kts 306°
2026-05-08 22:25 10.49060 74.06492 33802 ft 497 kts 306°
2026-05-08 22:26 10.53094 74.00786 33801 ft 497 kts 306°
2026-05-08 22:26 10.57126 73.95073 33800 ft 497 kts 306°
2026-05-08 22:27 10.61145 73.89372 33800 ft 496 kts 306°
2026-05-08 22:27 10.65138 73.83705 33799 ft 496 kts 306°
2026-05-08 22:28 10.69157 73.77998 33805 ft 496 kts 306°
2026-05-08 22:28 10.73174 73.72293 33799 ft 496 kts 306°
2026-05-08 22:29 10.77183 73.66594 33804 ft 496 kts 306°
2026-05-08 22:29 10.81197 73.60886 33800 ft 496 kts 306°
2026-05-08 22:30 10.85205 73.55184 33801 ft 495 kts 306°
2026-05-08 22:30 10.89209 73.49485 33798 ft 495 kts 306°
2026-05-08 22:31 10.93214 73.43779 33802 ft 495 kts 306°
2026-05-08 22:31 10.97211 73.38084 33795 ft 494 kts 306°
2026-05-08 22:32 11.01198 73.32400 33799 ft 493 kts 306°
2026-05-08 22:32 11.05152 73.26759 33799 ft 492 kts 306°
2026-05-08 22:33 11.09135 73.21074 33801 ft 494 kts 306°
2026-05-08 22:33 11.13135 73.15362 33799 ft 496 kts 306°
2026-05-08 22:34 11.17138 73.09641 33795 ft 495 kts 306°
2026-05-08 22:34 11.21133 73.03929 33796 ft 493 kts 306°
2026-05-08 22:35 11.25104 72.98249 33794 ft 492 kts 306°
2026-05-08 22:35 11.29077 72.92564 33801 ft 493 kts 306°
2026-05-08 22:36 11.33054 72.86869 33801 ft 493 kts 305°
2026-05-08 22:36 11.37007 72.81204 33794 ft 493 kts 305°
2026-05-08 22:37 11.40974 72.75518 33794 ft 492 kts 305°
2026-05-08 22:37 11.44936 72.69834 33793 ft 490 kts 305°
2026-05-08 22:38 11.48877 72.64177 33794 ft 489 kts 305°
2026-05-08 22:38 11.52814 72.58524 33795 ft 488 kts 305°
2026-05-08 22:39 11.56756 72.52861 33796 ft 490 kts 305°
2026-05-08 22:39 11.60705 72.47184 33796 ft 492 kts 305°
2026-05-08 22:40 11.64666 72.41485 33795 ft 492 kts 305°
2026-05-08 22:40 11.68591 72.35837 33789 ft 490 kts 305°
2026-05-08 22:41 11.72528 72.30166 33794 ft 489 kts 305°
2026-05-08 22:41 11.76453 72.24510 33797 ft 488 kts 305°
2026-05-08 22:42 11.80396 72.18825 33801 ft 491 kts 305°
2026-05-08 22:42 11.84355 72.13114 33801 ft 495 kts 305°
2026-05-08 22:43 11.88331 72.07374 33793 ft 494 kts 305°
2026-05-08 22:43 11.92287 72.01659 33788 ft 491 kts 305°
2026-05-08 22:44 11.95589 71.96954 33796 ft 490 kts 306°
2026-05-08 22:44 11.99661 71.91361 33806 ft 492 kts 307°
2026-05-08 22:45 12.04428 71.84837 33805 ft 494 kts 307°
2026-05-08 22:45 12.07864 71.80107 33803 ft 495 kts 306°
2026-05-08 22:46 12.11964 71.74444 33798 ft 495 kts 306°
2026-05-08 22:46 12.16013 71.68846 33798 ft 491 kts 306°
2026-05-08 22:47 12.20069 71.63237 33800 ft 490 kts 306°
2026-05-08 22:47 12.24114 71.57641 33801 ft 490 kts 306°
2026-05-08 22:48 12.28173 71.52022 33808 ft 492 kts 306°
2026-05-08 22:48 12.32243 71.46384 33809 ft 493 kts 306°
2026-05-08 22:49 12.36323 71.40729 33803 ft 494 kts 306°
2026-05-08 22:49 12.42405 71.32293 33802 ft 493 kts 306°
2026-05-08 22:50 12.46467 71.26653 33798 ft 492 kts 306°
2026-05-08 22:50 12.50522 71.21026 33803 ft 490 kts 306°
2026-05-08 22:51 12.54563 71.15424 33804 ft 489 kts 306°
2026-05-08 22:51 12.58605 71.09817 33813 ft 490 kts 306°
2026-05-08 22:52 12.62656 71.04191 33806 ft 490 kts 306°
2026-05-08 22:52 12.66695 70.98578 33805 ft 489 kts 306°
2026-05-08 22:53 12.70724 70.92976 33810 ft 489 kts 306°
2026-05-08 22:53 12.74760 70.87360 33812 ft 490 kts 306°
2026-05-08 22:54 12.78801 70.81733 33809 ft 490 kts 306°
2026-05-08 22:54 12.82815 70.76140 33813 ft 490 kts 306°
2026-05-08 22:55 12.86877 70.70479 33809 ft 489 kts 306°
2026-05-08 22:55 12.90877 70.64899 33809 ft 489 kts 306°
2026-05-08 22:56 12.94912 70.59267 33808 ft 490 kts 306°
2026-05-08 22:56 12.98957 70.53617 33809 ft 492 kts 306°
2026-05-08 22:57 13.03006 70.47957 33810 ft 492 kts 306°
2026-05-08 22:57 13.07050 70.42297 33807 ft 491 kts 306°
2026-05-08 22:58 13.11073 70.36634 33810 ft 491 kts 306°
2026-05-08 22:58 13.15086 70.30975 33811 ft 489 kts 306°
2026-05-08 22:59 13.19090 70.25326 33809 ft 489 kts 306°
2026-05-08 22:59 13.23104 70.19663 33819 ft 492 kts 306°
2026-05-08 23:00 13.27144 70.13961 33818 ft 495 kts 306°
2026-05-08 23:00 13.31199 70.08232 33813 ft 496 kts 306°
2026-05-08 23:01 13.35249 70.02507 33812 ft 495 kts 306°
2026-05-08 23:01 13.39289 69.96793 33813 ft 492 kts 306°
2026-05-08 23:02 13.43296 69.91121 33816 ft 489 kts 306°
2026-05-08 23:02 13.47287 69.85468 33830 ft 490 kts 306°
2026-05-08 23:03 13.51299 69.79783 33821 ft 492 kts 306°
2026-05-08 23:03 13.55287 69.74126 33825 ft 493 kts 306°
2026-05-08 23:04 13.59321 69.68402 33829 ft 494 kts 306°
2026-05-08 23:04 13.63349 69.62683 33824 ft 492 kts 306°
2026-05-08 23:05 13.67346 69.57002 33821 ft 489 kts 306°
2026-05-08 23:05 13.71328 69.51340 33829 ft 489 kts 306°
2026-05-08 23:06 13.75326 69.45652 33839 ft 492 kts 306°
2026-05-08 23:06 13.79338 69.39938 33833 ft 493 kts 306°
2026-05-08 23:07 13.83331 69.34249 33826 ft 492 kts 306°
2026-05-08 23:07 13.87319 69.28563 33822 ft 488 kts 306°
2026-05-08 23:08 13.91287 69.22902 33833 ft 488 kts 306°
2026-05-08 23:08 13.95267 69.17220 33840 ft 490 kts 306°
2026-05-08 23:09 13.99265 69.11507 33837 ft 492 kts 305°
2026-05-08 23:09 14.03271 69.05779 33844 ft 494 kts 305°
2026-05-08 23:10 14.07289 69.00030 33835 ft 493 kts 305°
2026-05-08 23:10 14.11302 68.94311 33831 ft 491 kts 306°
2026-05-08 23:11 14.15294 68.88672 33836 ft 490 kts 306°
2026-05-08 23:11 14.19308 68.82998 33842 ft 489 kts 306°
2026-05-08 23:12 14.23318 68.77318 33849 ft 491 kts 306°
2026-05-08 23:12 14.27341 68.71611 33842 ft 492 kts 306°
2026-05-08 23:13 14.31361 68.65905 33838 ft 490 kts 306°
2026-05-08 23:13 14.35355 68.60232 33838 ft 488 kts 305°
2026-05-08 23:14 14.39344 68.54560 33847 ft 488 kts 306°
2026-05-08 23:14 14.43313 68.48915 33843 ft 490 kts 305°
2026-05-08 23:15 14.47322 68.43208 33849 ft 492 kts 306°
2026-05-08 23:15 14.51329 68.37501 33845 ft 490 kts 305°
2026-05-08 23:16 14.55321 68.31809 33845 ft 488 kts 305°
2026-05-08 23:16 14.59300 68.26133 33849 ft 488 kts 305°
2026-05-08 23:17 14.63285 68.20445 33847 ft 489 kts 305°
2026-05-08 23:17 14.67251 68.14780 33845 ft 482 kts 305°
2026-05-08 23:18 14.71157 68.09196 33845 ft 479 kts 305°
2026-05-08 23:18 14.75080 68.03584 33857 ft 484 kts 305°
2026-05-08 23:19 14.79032 67.97927 33853 ft 486 kts 305°
2026-05-08 23:19 14.82950 67.92315 33843 ft 482 kts 305°
2026-05-08 23:20 14.86864 67.86703 33846 ft 481 kts 305°
2026-05-08 23:20 14.90776 67.81090 33851 ft 482 kts 305°
2026-05-08 23:21 14.94700 67.75458 33852 ft 483 kts 305°
2026-05-08 23:21 14.98627 67.69817 33845 ft 483 kts 305°
2026-05-08 23:22 15.02554 67.64169 33852 ft 483 kts 305°
2026-05-08 23:22 15.06485 67.58516 33846 ft 483 kts 304°
2026-05-08 23:23 15.10401 67.52877 33850 ft 483 kts 305°
2026-05-08 23:23 15.14320 67.47231 33849 ft 484 kts 304°
2026-05-08 23:24 15.18217 67.41612 33850 ft 483 kts 304°
2026-05-08 23:24 15.22132 67.35961 33848 ft 482 kts 304°
2026-05-08 23:25 15.26036 67.30326 33849 ft 482 kts 305°
2026-05-08 23:25 15.29944 67.24679 33848 ft 482 kts 305°
2026-05-08 23:26 15.33858 67.19019 33848 ft 483 kts 304°
2026-05-08 23:26 15.37771 67.13355 33845 ft 483 kts 304°
2026-05-08 23:27 15.41677 67.07699 33849 ft 482 kts 304°
2026-05-08 23:27 15.45578 67.02043 33851 ft 483 kts 305°
2026-05-08 23:28 15.49487 66.96373 33853 ft 484 kts 304°
2026-05-08 23:28 15.53408 66.90682 33846 ft 484 kts 304°
2026-05-08 23:29 15.57314 66.85008 33847 ft 482 kts 304°
2026-05-08 23:29 15.61218 66.79373 33847 ft 481 kts 305°
2026-05-08 23:30 15.65164 66.73753 33851 ft 482 kts 305°
2026-05-08 23:30 15.69097 66.68153 33847 ft 483 kts 305°
2026-05-08 23:31 15.73034 66.62530 33850 ft 481 kts 305°
2026-05-08 23:31 15.76967 66.56902 33855 ft 481 kts 305°
2026-05-08 23:32 15.80902 66.51267 33852 ft 482 kts 305°
2026-05-08 23:32 15.84816 66.45655 33851 ft 483 kts 305°
2026-05-08 23:33 15.88750 66.40012 33855 ft 482 kts 305°
2026-05-08 23:33 15.92043 66.35287 33854 ft 481 kts 305°
2026-05-08 23:34 15.95945 66.29682 33860 ft 482 kts 305°
2026-05-08 23:34 15.99884 66.24021 33859 ft 484 kts 305°
2026-05-08 23:35 16.03823 66.18353 33857 ft 483 kts 305°
2026-05-08 23:35 16.07759 66.12689 33856 ft 483 kts 305°
2026-05-08 23:36 16.11689 66.07027 33859 ft 483 kts 305°
2026-05-08 23:36 16.15613 66.01368 33862 ft 483 kts 305°
2026-05-08 23:37 16.19540 65.95702 33861 ft 482 kts 305°
2026-05-08 23:37 16.23465 65.90034 33862 ft 482 kts 305°
2026-05-08 23:38 16.27389 65.84364 33867 ft 484 kts 305°
2026-05-08 23:38 16.31324 65.78671 33865 ft 484 kts 305°
2026-05-08 23:39 16.35251 65.72988 33859 ft 482 kts 305°
2026-05-08 23:39 16.39165 65.67317 33863 ft 482 kts 305°
2026-05-08 23:40 16.43087 65.61630 33871 ft 484 kts 305°
2026-05-08 23:40 16.47018 65.55927 33861 ft 484 kts 305°
2026-05-08 23:41 16.50939 65.50234 33864 ft 483 kts 305°
2026-05-08 23:41 16.54830 65.44579 33869 ft 484 kts 305°
2026-05-08 23:42 16.58754 65.38873 33867 ft 484 kts 305°
2026-05-08 23:42 16.62669 65.33173 33867 ft 483 kts 305°
2026-05-08 23:43 16.66583 65.27471 33867 ft 483 kts 305°
2026-05-08 23:43 16.70495 65.21768 33869 ft 483 kts 305°
2026-05-08 23:44 16.74401 65.16068 33871 ft 483 kts 305°
2026-05-08 23:44 16.78286 65.10396 33869 ft 483 kts 305°
2026-05-08 23:45 16.82193 65.04685 33863 ft 484 kts 306°
2026-05-08 23:45 16.86106 64.98961 33871 ft 485 kts 306°
2026-05-08 23:46 16.90020 64.93231 33873 ft 485 kts 306°
2026-05-08 23:46 16.93933 64.87499 33875 ft 484 kts 305°
2026-05-08 23:47 16.97837 64.81775 33872 ft 484 kts 305°
2026-05-08 23:47 17.01741 64.76046 33874 ft 484 kts 305°
2026-05-08 23:48 17.05640 64.70318 33872 ft 484 kts 305°
2026-05-08 23:48 17.09541 64.64584 33877 ft 484 kts 305°
2026-05-08 23:49 17.13414 64.58886 33875 ft 484 kts 305°
2026-05-08 23:49 17.17309 64.53150 33875 ft 484 kts 305°
2026-05-08 23:50 17.21200 64.47415 33876 ft 483 kts 305°
2026-05-08 23:50 17.25094 64.41671 33880 ft 483 kts 305°
2026-05-08 23:51 17.28983 64.35936 33881 ft 483 kts 306°
2026-05-08 23:51 17.32953 64.30266 33884 ft 483 kts 307°
2026-05-08 23:52 17.36966 64.24622 33880 ft 483 kts 307°
2026-05-08 23:52 17.40971 64.18968 33878 ft 483 kts 306°
2026-05-08 23:53 17.44964 64.13304 33879 ft 483 kts 306°
2026-05-08 23:53 17.48921 64.07676 33880 ft 483 kts 306°
2026-05-08 23:54 17.52903 64.02010 33878 ft 483 kts 306°
2026-05-08 23:55 17.58868 63.93513 33881 ft 482 kts 306°
2026-05-08 23:55 17.62843 63.87847 33878 ft 483 kts 306°
2026-05-08 23:56 17.66819 63.82173 33882 ft 483 kts 306°
2026-05-08 23:56 17.70791 63.76501 33877 ft 481 kts 306°
2026-05-08 23:57 17.74752 63.70839 33882 ft 482 kts 306°
2026-05-08 23:57 17.78722 63.65160 33880 ft 482 kts 306°
2026-05-08 23:58 17.82662 63.59518 33879 ft 482 kts 306°
2026-05-08 23:58 17.86615 63.53854 33884 ft 481 kts 306°
2026-05-08 23:59 17.90567 63.48185 33883 ft 481 kts 306°
2026-05-08 23:59 17.94522 63.42508 33879 ft 481 kts 306°
2026-05-09 00:00 17.98472 63.36833 33881 ft 481 kts 306°
2026-05-09 00:00 18.02413 63.31166 33877 ft 479 kts 306°
2026-05-09 00:01 18.06333 63.25525 33879 ft 477 kts 306°
2026-05-09 00:01 18.10251 63.19881 33884 ft 479 kts 306°
2026-05-09 00:02 18.14188 63.14204 33881 ft 481 kts 306°
2026-05-09 00:02 18.18136 63.08507 33878 ft 482 kts 306°
2026-05-09 00:03 18.22080 63.02812 33876 ft 480 kts 306°
2026-05-09 00:03 18.25966 62.97194 33874 ft 476 kts 306°
2026-05-09 00:04 18.29849 62.91576 33878 ft 474 kts 306°
2026-05-09 00:04 18.33739 62.85943 33888 ft 478 kts 306°
2026-05-09 00:05 18.37666 62.80252 33883 ft 481 kts 306°
2026-05-09 00:05 18.41596 62.74551 33875 ft 480 kts 306°
2026-05-09 00:06 18.45509 62.68869 33878 ft 479 kts 306°
2026-05-09 00:06 18.49420 62.63186 33877 ft 479 kts 306°
2026-05-09 00:07 18.53325 62.57505 33872 ft 478 kts 305°
2026-05-09 00:07 18.57214 62.51842 33872 ft 476 kts 305°
2026-05-09 00:08 18.61078 62.46189 33872 ft 475 kts 305°
2026-05-09 00:08 18.64890 62.40554 33879 ft 476 kts 305°
2026-05-09 00:09 18.68734 62.34863 33872 ft 478 kts 305°
2026-05-09 00:09 18.72595 62.29147 33872 ft 477 kts 305°
2026-05-09 00:10 18.76446 62.23444 33870 ft 477 kts 305°
2026-05-09 00:10 18.80295 62.17740 33865 ft 476 kts 305°
2026-05-09 00:11 18.84123 62.12063 33865 ft 473 kts 305°
2026-05-09 00:11 18.87930 62.06411 33869 ft 472 kts 305°
2026-05-09 00:12 18.91746 62.00741 33873 ft 475 kts 304°
2026-05-09 00:12 18.95588 61.95026 33868 ft 478 kts 304°
2026-05-09 00:13 18.99433 61.89302 33865 ft 477 kts 304°
2026-05-09 00:13 19.03275 61.83577 33867 ft 477 kts 304°
2026-05-09 00:14 19.07111 61.77855 33863 ft 477 kts 304°
2026-05-09 00:14 19.10943 61.72134 33860 ft 475 kts 304°
2026-05-09 00:15 19.14752 61.66443 33860 ft 472 kts 304°
2026-05-09 00:15 19.18517 61.60812 33864 ft 472 kts 304°
2026-05-09 00:16 19.22311 61.55131 33859 ft 473 kts 304°
2026-05-09 00:16 19.26112 61.49436 33861 ft 475 kts 304°
2026-05-09 00:17 19.29930 61.43710 33863 ft 477 kts 304°
2026-05-09 00:17 19.33756 61.37967 33857 ft 477 kts 304°
2026-05-09 00:18 19.37569 61.32236 33858 ft 476 kts 304°
2026-05-09 00:18 19.41381 61.26505 33859 ft 476 kts 304°
2026-05-09 00:19 19.45193 61.20767 33859 ft 477 kts 304°
2026-05-09 00:19 19.49015 61.15007 33854 ft 477 kts 304°
2026-05-09 00:20 19.52822 61.09266 33854 ft 475 kts 304°
2026-05-09 00:20 19.56583 61.03585 33855 ft 474 kts 304°
2026-05-09 00:21 19.60370 60.97864 33858 ft 474 kts 304°
2026-05-09 00:21 19.64163 60.92126 33858 ft 474 kts 304°
2026-05-09 00:22 19.67949 60.86397 33856 ft 474 kts 303°
2026-05-09 00:22 19.71092 60.81630 33855 ft 475 kts 303°
2026-05-09 00:23 19.75527 60.74907 33848 ft 476 kts 303°
2026-05-09 00:23 19.78676 60.70124 33847 ft 476 kts 303°
2026-05-09 00:24 19.82465 60.64365 33845 ft 476 kts 304°
2026-05-09 00:24 19.86875 60.57654 33848 ft 477 kts 303°
2026-05-09 00:25 19.90032 60.52848 33843 ft 476 kts 303°
2026-05-09 00:25 19.93812 60.47090 33844 ft 474 kts 303°
2026-05-09 00:26 19.97585 60.41328 33850 ft 476 kts 303°
2026-05-09 00:26 20.01380 60.35538 33844 ft 478 kts 303°
2026-05-09 00:27 20.05722 60.30192 33841 ft 479 kts 316°
2026-05-09 00:27 20.11083 60.25983 33834 ft 481 kts 327°
2026-05-09 00:28 20.16848 60.22383 33837 ft 481 kts 328°
2026-05-09 00:28 20.22634 60.18796 33836 ft 480 kts 328°
2026-05-09 00:29 20.28382 60.15177 33834 ft 479 kts 327°
2026-05-09 00:29 20.34072 60.11562 33834 ft 479 kts 327°
2026-05-09 00:30 20.39803 60.07914 33830 ft 479 kts 327°
2026-05-09 00:30 20.45527 60.04268 33831 ft 479 kts 327°
2026-05-09 00:31 20.51243 60.00623 33829 ft 479 kts 327°
2026-05-09 00:31 20.56955 59.96981 33822 ft 477 kts 327°
2026-05-09 00:32 20.62668 59.93333 33828 ft 479 kts 327°
2026-05-09 00:32 20.68390 59.89678 33824 ft 479 kts 327°
2026-05-09 00:33 20.74097 59.86026 33821 ft 478 kts 327°
2026-05-09 00:33 20.79799 59.82377 33822 ft 477 kts 327°
2026-05-09 00:34 20.85504 59.78722 33826 ft 479 kts 327°
2026-05-09 00:34 20.91229 59.75050 33815 ft 479 kts 327°
2026-05-09 00:35 20.96934 59.71388 33811 ft 477 kts 327°
2026-05-09 00:35 21.02612 59.67739 33819 ft 476 kts 327°
2026-05-09 00:36 21.08309 59.64073 33819 ft 478 kts 327°
2026-05-09 00:36 21.13980 59.60423 33814 ft 479 kts 327°
2026-05-09 00:37 21.19692 59.56741 33812 ft 479 kts 327°
2026-05-09 00:37 21.25400 59.53056 33813 ft 480 kts 327°
2026-05-09 00:38 21.31119 59.49364 33812 ft 480 kts 327°
2026-05-09 00:38 21.36845 59.45662 33814 ft 480 kts 327°
2026-05-09 00:39 21.42569 59.41957 33809 ft 480 kts 327°
2026-05-09 00:39 21.48284 59.38254 33809 ft 480 kts 327°
2026-05-09 00:40 21.54003 59.34545 33810 ft 480 kts 327°
2026-05-09 00:40 21.59729 59.30828 33814 ft 480 kts 327°
2026-05-09 00:41 21.68314 59.25253 33813 ft 481 kts 327°
2026-05-09 00:41 21.74009 59.21552 33819 ft 481 kts 327°
2026-05-09 00:42 21.79733 59.17828 33814 ft 481 kts 327°
2026-05-09 00:42 21.85452 59.14103 33819 ft 481 kts 327°
2026-05-09 00:43 21.91179 59.10369 33821 ft 481 kts 327°
2026-05-09 00:43 21.96895 59.06639 33820 ft 480 kts 327°
2026-05-09 00:44 22.02616 59.02901 33824 ft 480 kts 327°
2026-05-09 00:44 22.08332 58.99163 33826 ft 480 kts 327°
2026-05-09 00:45 22.14043 58.95425 33825 ft 480 kts 327°
2026-05-09 00:45 22.19722 58.91704 33824 ft 480 kts 327°
2026-05-09 00:46 22.25432 58.87960 33828 ft 480 kts 327°
2026-05-09 00:46 22.31146 58.84211 33835 ft 480 kts 327°
2026-05-09 00:47 22.36859 58.80459 33829 ft 480 kts 327°
2026-05-09 00:47 22.42569 58.76705 33832 ft 480 kts 327°
2026-05-09 00:48 22.48280 58.72945 33832 ft 480 kts 326°
2026-05-09 00:48 22.53981 58.69188 33833 ft 480 kts 326°
2026-05-09 00:49 22.59678 58.65430 33829 ft 480 kts 326°
2026-05-09 00:49 22.65371 58.61671 33831 ft 479 kts 326°
2026-05-09 00:50 22.71022 58.57939 33832 ft 479 kts 326°
2026-05-09 00:50 22.76702 58.54185 33828 ft 478 kts 326°
2026-05-09 00:51 22.82376 58.50429 33829 ft 477 kts 326°
2026-05-09 00:51 22.88041 58.46676 33825 ft 477 kts 326°
2026-05-09 00:52 22.93700 58.42922 33830 ft 477 kts 326°
2026-05-09 00:52 22.99356 58.39166 33830 ft 476 kts 326°
2026-05-09 00:53 23.05009 58.35410 33812 ft 476 kts 326°
2026-05-09 00:53 23.10658 58.31652 33819 ft 476 kts 326°
2026-05-09 00:54 23.16304 58.27889 33819 ft 475 kts 326°
2026-05-09 00:54 23.21944 58.24127 33797 ft 475 kts 326°
2026-05-09 00:55 23.27554 58.20381 33791 ft 476 kts 326°
2026-05-09 00:55 23.33194 58.16611 33758 ft 476 kts 326°
2026-05-09 00:56 23.38830 58.12840 33749 ft 476 kts 326°
2026-05-09 00:56 23.44472 58.09063 33743 ft 476 kts 326°
2026-05-09 00:57 23.50106 58.05286 33744 ft 475 kts 326°
2026-05-09 00:57 23.55734 58.01508 33746 ft 475 kts 326°
2026-05-09 00:58 23.61364 57.97725 33752 ft 475 kts 326°
2026-05-09 00:58 23.66922 57.93841 33762 ft 473 kts 320°
2026-05-09 00:59 23.71773 57.89047 33772 ft 469 kts 310°
2026-05-09 00:59 23.75869 57.83523 33780 ft 467 kts 305°
2026-05-09 01:00 23.79843 57.77909 33775 ft 467 kts 305°
2026-05-09 01:00 23.83839 57.72316 33774 ft 467 kts 306°
2026-05-09 01:01 23.87851 57.66737 33778 ft 467 kts 306°
2026-05-09 01:01 23.91837 57.61197 33767 ft 466 kts 306°
2026-05-09 01:02 23.95849 57.55608 33767 ft 466 kts 306°
2026-05-09 01:02 23.99848 57.50033 33765 ft 466 kts 306°
2026-05-09 01:03 24.03849 57.44442 33771 ft 466 kts 306°
2026-05-09 01:03 24.07838 57.38857 33769 ft 466 kts 305°
2026-05-09 01:04 24.11822 57.33271 33772 ft 465 kts 305°
2026-05-09 01:04 24.15778 57.27721 33758 ft 454 kts 305°
2026-05-09 01:05 24.19623 57.22321 33761 ft 446 kts 305°
2026-05-09 01:06 24.25344 57.14266 33776 ft 448 kts 305°
2026-05-09 01:06 24.29146 57.08909 33769 ft 448 kts 305°
2026-05-09 01:07 24.32976 57.03506 33773 ft 448 kts 305°
2026-05-09 01:07 24.36794 56.98115 33766 ft 448 kts 305°
2026-05-09 01:08 24.40613 56.92726 33762 ft 448 kts 305°
2026-05-09 01:08 24.44448 56.87338 33762 ft 448 kts 305°
2026-05-09 01:09 24.48278 56.81949 33757 ft 447 kts 305°
2026-05-09 01:09 24.52102 56.76558 33755 ft 447 kts 305°
2026-05-09 01:10 24.55921 56.71169 33756 ft 447 kts 305°
2026-05-09 01:10 24.59092 56.66685 33761 ft 447 kts 304°
2026-05-09 01:11 24.62902 56.61290 33764 ft 446 kts 304°
2026-05-09 01:11 24.66713 56.55888 33772 ft 446 kts 304°
2026-05-09 01:12 24.70515 56.50494 33782 ft 446 kts 304°
2026-05-09 01:12 24.74315 56.45091 33793 ft 446 kts 304°
2026-05-09 01:13 24.78115 56.39682 33786 ft 446 kts 304°
2026-05-09 01:13 24.81863 56.34255 33772 ft 445 kts 303°
2026-05-09 01:14 24.85511 56.28812 33774 ft 445 kts 303°
2026-05-09 01:14 24.89040 56.23234 33767 ft 442 kts 297°
2026-05-09 01:15 24.92020 56.17315 33772 ft 441 kts 295°
2026-05-09 01:15 24.94943 56.11518 33752 ft 419 kts 296°
2026-05-09 01:15 24.96358 56.08770 33757 ft 405 kts 296°
2026-05-09 01:16 24.97797 56.06154 33743 ft 394 kts 303°
2026-05-09 01:16 25.01407 56.01775 33771 ft 379 kts 309°
2026-05-09 01:17 25.06830 55.95251 33813 ft 389 kts 307°
2026-05-09 01:17 25.10425 55.90841 33366 ft 378 kts 307°
2026-05-09 01:18 25.12145 55.88735 32616 ft 373 kts 307°
2026-05-09 01:18 25.13893 55.86582 31941 ft 379 kts 307°
2026-05-09 01:18 25.15647 55.84400 31444 ft 379 kts 304°
2026-05-09 01:18 25.16349 55.83396 31225 ft 376 kts 299°
2026-05-09 01:19 25.17451 55.81487 30990 ft 369 kts 296°
2026-05-09 01:19 25.18741 55.79052 30669 ft 365 kts 295°
2026-05-09 01:19 25.20030 55.76618 30105 ft 370 kts 296°
2026-05-09 01:19 25.21370 55.74149 29351 ft 379 kts 296°
2026-05-09 01:20 25.22755 55.71643 28609 ft 385 kts 297°
2026-05-09 01:20 25.24172 55.69109 27854 ft 391 kts 297°
2026-05-09 01:20 25.25601 55.66563 27071 ft 384 kts 297°
2026-05-09 01:20 25.26920 55.64057 26313 ft 369 kts 288°
2026-05-09 01:21 25.27487 55.61384 25580 ft 350 kts 267°
2026-05-09 01:21 25.27210 55.58788 24906 ft 334 kts 250°
2026-05-09 01:21 25.26321 55.56506 24242 ft 326 kts 238°
2026-05-09 01:21 25.25185 55.54369 23579 ft 321 kts 235°
2026-05-09 01:22 25.23713 55.52534 22842 ft 323 kts 216°
2026-05-09 01:22 25.21730 55.51368 21954 ft 325 kts 197°
2026-05-09 01:22 25.19501 55.51013 20959 ft 326 kts 178°
2026-05-09 01:22 25.17296 55.51551 20016 ft 327 kts 157°
2026-05-09 01:23 25.15404 55.52929 19104 ft 329 kts 136°
2026-05-09 01:23 25.13978 55.54910 18241 ft 329 kts 125°
2026-05-09 01:23 25.12779 55.57056 17251 ft 328 kts 118°
2026-05-09 01:23 25.12200 55.59475 16228 ft 331 kts 91°
2026-05-09 01:24 25.12691 55.61942 15290 ft 331 kts 66°
2026-05-09 01:24 25.13870 55.64116 14386 ft 329 kts 57°
2026-05-09 01:24 25.14868 55.66351 13429 ft 323 kts 77°
2026-05-09 01:24 25.14984 55.68787 12441 ft 318 kts 99°
2026-05-09 01:25 25.14328 55.71086 11484 ft 313 kts 119°
2026-05-09 01:25 25.13208 55.73131 10702 ft 308 kts 123°
2026-05-09 01:25 25.12069 55.75093 10005 ft 301 kts 123°
2026-05-09 01:25 25.10958 55.77029 9298 ft 296 kts 123°
2026-05-09 01:26 25.09886 55.78925 8564 ft 292 kts 123°
2026-05-09 01:26 25.08819 55.80823 7841 ft 289 kts 122°
2026-05-09 01:26 25.07751 55.82686 7142 ft 286 kts 128°
2026-05-09 01:26 25.06279 55.84096 6417 ft 280 kts 157°
2026-05-09 01:27 25.04427 55.84570 5730 ft 271 kts 184°
2026-05-09 01:27 25.02598 55.84219 5034 ft 264 kts 205°
2026-05-09 01:27 25.01161 55.83070 4300 ft 254 kts 240°
2026-05-09 01:27 25.00697 55.81277 3629 ft 242 kts 279°
2026-05-09 01:28 25.01332 55.79638 3388 ft 233 kts 303°
2026-05-09 01:28 25.02185 55.78107 3309 ft 235 kts 301°
2026-05-09 01:28 25.03018 55.76554 3202 ft 234 kts 301°
2026-05-09 01:28 25.03843 55.75018 3172 ft 231 kts 301°
2026-05-09 01:29 25.04675 55.73502 3122 ft 230 kts 302°
2026-05-09 01:29 25.05512 55.71991 3079 ft 230 kts 301°
2026-05-09 01:29 25.06336 55.70509 3013 ft 223 kts 301°
2026-05-09 01:29 25.07128 55.69085 2924 ft 213 kts 301°
2026-05-09 01:30 25.07871 55.67750 2820 ft 194 kts 301°
2026-05-09 01:30 25.08561 55.66513 2796 ft 186 kts 302°
2026-05-09 01:30 25.09239 55.65299 2766 ft 187 kts 302°
2026-05-09 01:30 25.09925 55.64093 2721 ft 184 kts 302°
2026-05-09 01:31 25.10603 55.62916 2700 ft 184 kts 302°
2026-05-09 01:31 25.11286 55.61705 2621 ft 183 kts 301°
2026-05-09 01:31 25.11941 55.60531 2558 ft 182 kts 301°
2026-05-09 01:31 25.12600 55.59345 2506 ft 181 kts 301°
2026-05-09 01:32 25.13266 55.58143 2452 ft 181 kts 301°
2026-05-09 01:32 25.13926 55.56951 2411 ft 183 kts 302°
2026-05-09 01:32 25.14582 55.55771 2354 ft 182 kts 301°
2026-05-09 01:32 25.15251 55.54560 2318 ft 182 kts 301°
2026-05-09 01:33 25.15890 55.53402 2234 ft 177 kts 301°
2026-05-09 01:33 25.16528 55.52249 2156 ft 175 kts 301°
2026-05-09 01:33 25.17159 55.51110 2082 ft 174 kts 301°
2026-05-09 01:33 25.17762 55.50021 2008 ft 156 kts 301°
2026-05-09 01:34 25.18299 55.49052 1968 ft 138 kts 301°
2026-05-09 01:34 25.18790 55.48163 1814 ft 133 kts 301°
2026-05-09 01:34 25.19272 55.47292 1639 ft 133 kts 301°
2026-05-09 01:34 25.19754 55.46418 1457 ft 133 kts 301°
2026-05-09 01:35 25.20239 55.45544 1299 ft 134 kts 301°
2026-05-09 01:35 25.20729 55.44657 1118 ft 136 kts 301°
2026-05-09 01:35 25.21226 55.43760 961 ft 137 kts 301°
2026-05-09 01:35 25.21726 55.42854 768 ft 141 kts 300°
2026-05-09 01:36 25.22241 55.41923 611 ft 145 kts 299°
2026-05-09 01:36 25.22755 55.40980 435 ft 146 kts 298°
2026-05-09 01:36 25.23290 55.40022 235 ft 147 kts 300°
2026-05-09 01:36 25.23825 55.39077 64 ft 141 kts 299°
2026-05-09 01:37 25.24286 55.38247 50 ft 109 kts 301°
2026-05-09 01:37 25.24616 55.37647 43 ft 74 kts 301°
2026-05-09 01:37 25.24837 55.37253 34 ft 51 kts 301°
2026-05-09 01:37 25.24997 55.36931 28 ft 46 kts 288°
2026-05-09 01:38 25.25022 55.36713 27 ft 0 kts 271°
2026-05-09 01:38 25.25023 55.36704 27 ft 7 kts 271°
2026-05-09 01:38 25.25025 55.36596 27 ft 16 kts 271°
2026-05-09 01:38 25.25036 55.36465 27 ft 22 kts 281°
2026-05-09 01:39 25.25103 55.36287 27 ft 26 kts 301°
2026-05-09 01:39 25.25195 55.36120 27 ft 26 kts 303°
2026-05-09 01:39 25.25289 55.35956 27 ft 25 kts 300°
2026-05-09 01:39 25.25278 55.35828 26 ft 13 kts 254°
2026-05-09 01:40 25.25306 55.35732 26 ft 14 kts 294°
2026-05-09 01:40 25.25280 55.35676 26 ft 10 kts 215°
2026-05-09 01:40 25.25239 55.35649 26 ft 0 kts 211°
2026-05-09 01:40 25.25232 55.35645 26 ft 0 kts 211°